Погода в Кананге

Демократическая Республика Конго     5°55′12″S   22°24′55″E
темп.,
°C
ветер,
м/с
пор.,
м/с
влажн.,
%
обл.,
%
осадки,
мм/ч
давл.,
гПа
погр.,
м
27 ноября, сб
сб2701:00+18юв129864 0.0 101339
04:00+19вюв1195100 0.0 101338
07:00+20вюв159361 0.0 1015242
10:00+20ю1294100 0.1 1014120
13:00+28всв135759 0.1 10101172
16:00+28св226298 0.0 1008840
19:00+22вюв2283100 0.0 101019
22:00+21ююв1190100 0.0 101221
28 ноября, вс
вс2801:00+20в119699 0.5 101112
04:00+20ююз0095100 0.4 101113
07:00+21ю129652 1.4 101372
10:00+24сз128292 0.0 1012321
13:00+26св2382100 3.2 1010443
16:00+24с1289100 2.7 1009183
19:00+20ююв1193100 2.8 101011
22:00+20ю1194100 0.0 101211
29 ноября, пн
пн2901:00+19ю1295100 0.0 101122
04:00+19ю1197100 0.0 101118
07:00+22юз1287100 0.0 1013172
10:00+29ююв1154100 0.0 1012954
13:00+30всв1253100 0.0 10081317
16:00+29ссв2361100 0.0 1007624
19:00+22в0188100 0.4 100911
22:00+21юв1191100 0.1 101111
30 ноября, вт
вт3001:00+20зюз009799 0.8 101011
04:00+19з119878 0.1 101111
07:00+21зсз129257 0.9 1012174
10:00+28ссз226183 0.1 1011942
13:00+26ссв2370100 0.1 1008379
16:00+26ссз24795 0.6 1006109
19:00+21з1195100 5.1 101030
22:00+21юз0196100 0.1 101111
1 декабря, ср
ср101:00+21в1197100 2.3 101118
04:00+20ююз2599100 1.3 1011161
07:00+21зюз2796100 1.9 1013336
10:00+26сз2366100 0.0 10131112
13:00+27сз2373100 1.2 10091069
16:00+24сз2591100 4.3 1009337
19:00+20зсз1296100 5.3 101142
22:00+20юз2397100 0.0 101283